Flag for Germany Weather past 2 weeks in Bruchsal, Baden-Württemberg, Germany

Now
64 °F

Passing clouds.


Feels Like: 64 °F
Forecast: 45 / 73 °F
Wind: 10 mph from West

Location: Baden Wurttemberg - Neuostheim

Current Time: May 30, 2015 at 7:41:06 PM

Latest Report: May 30, 2015 at 6:50 PM


Visibility: N/A

Pressure: 30.01 "Hg

Humidity: 34%

Dew point: 36 °F

Location of BruchsalLocation

Historic Weather in Bruchsal — Graph

°F

Bruchsal temperature yesterday

Maximum temperature yesterday: 64 °F (at 3:20 PM)
Minimum temperature yesterday: 55 °F (at 6:20 AM)
Average temperature yesterday: 61 °F

Past Weeks' High & Low Weather Summary

 TemperatureHumidityPressure
High73 °F (May 18, 3:50 PM)88% (May 18, 6:20 AM)30.33 "Hg (May 18, 6:20 AM)
Low41 °F (May 22, 5:20 AM)25% (May 18, 6:20 PM)29.71 "Hg (May 18, 6:50 PM)
Average61 °F53%30.06 "Hg
* Reported May 15 6:20 PM — May 30 6:20 PM, Bruchsal, Weather by CustomWeather, © 2015

Note: Actual official high and low records may vary slightly from our data, if they occured in-between our weather recording intervals... More about our weather records

Advertising

Bruchsal weather history for previous 24 hours

 ConditionsComfort  
Time TempWeatherWind HumidityBarometerVisibility
6:20 PM
Sat, May 30
64 °FPassing clouds.13 mph37%30.01 "HgN/A
5:50 PM64 °FPassing clouds.14 mph34%30.01 "HgN/A
5:20 PM64 °FPassing clouds.14 mph34%30.01 "HgN/A
4:50 PM64 °FPassing clouds.10 mph37%30.01 "HgN/A
4:20 PM64 °FPassing clouds.13 mph37%30.01 "HgN/A
3:50 PM63 °FPassing clouds.13 mph39%30.01 "HgN/A
3:20 PM63 °FPassing clouds.14 mph42%30.01 "HgN/A
2:50 PM64 °FSunny.14 mph43%30.01 "Hg10 mi
2:20 PM63 °FPassing clouds.15 mph42%30.01 "HgN/A
1:50 PM63 °FPassing clouds.17 mph42%29.98 "HgN/A
1:20 PM63 °FPassing clouds.16 mph42%29.98 "HgN/A
12:50 PM64 °FPassing clouds.13 mph46%29.98 "HgN/A
11:50 AM59 °FBroken clouds.9 mph48%29.98 "HgN/A
11:20 AM59 °FPassing clouds.14 mph48%29.98 "HgN/A
10:50 AM59 °FPassing clouds.10 mph55%29.98 "HgN/A
10:20 AM57 °FPartly sunny.10 mph59%29.98 "HgN/A
9:50 AM57 °FBroken clouds.12 mph63%29.98 "HgN/A
9:20 AM57 °FPartly sunny.7 mph72%29.95 "HgN/A
8:50 AM55 °FSunny.7 mph77%29.95 "Hg10 mi
8:20 AM55 °FPassing clouds.6 mph77%29.95 "HgN/A
7:50 AM54 °FPartly sunny.5 mph82%29.92 "HgN/A
7:20 AM54 °FBroken clouds.5 mph82%29.92 "HgN/A
9:20 PM
Fri, May 29
61 °FPassing clouds.7 mph63%29.86 "HgN/A
8:50 PM61 °FScattered clouds.9 mph63%29.86 "HgN/A
8:20 PM63 °FPartly sunny.6 mph64%29.83 "HgN/A
7:50 PM63 °FPartly sunny.7 mph68%29.83 "HgN/A
7:20 PM63 °FPassing clouds.7 mph68%29.83 "HgN/A
Weather by CustomWeather, © 2015

See weather overviewHow to use our weather pages